[[{"header":{"parameterUnit":"m.s-1","parameterCategory":1,"la1":30.2991,"la2":30.254,"lo1":-89.0895,"lo2":-89.0444,"dy":0.0017,"dx":0.0017,"nx":28,"ny":28,"refTime":"2025-08-16T21:00:00:Z","depth":0,"parameterNumber":2,"parameterNumberName":"U-component_of_WINDS"},"data":[0,0,0,0,0,0,0,0,0,0,0,0,0,0,0,0,0,0,0,0,0,0,0,0,0,0,0,0,0,0,0,0,0,0,0,0,0,0,0,0,0,0,0,0,0,0,0,0,0,0,0,0,0,0,0,0,0,0,1.3396,1.3397,0,1.3474,1.3475,1.3476,1.3498,1.3497,1.3497,1.3497,1.3578,1.358,1.3583,0,0,0,0,0,0,0,0,0,0,0,0,0,1.3265,1.3267,1.3396,1.3397,1.3398,1.3474,1.3475,1.3476,1.3498,1.3497,1.3497,1.3496,1.3577,1.358,1.3583,0,0,0,0,0,0,0,0,0,0,0,0,0,1.333,1.3268,1.3395,1.3418,1.3421,1.3474,1.3475,1.3476,1.3498,1.3497,1.3497,1.3496,1.3576,1.3579,1.3583,1.362,0,0,1.3595,1.3597,0,0,0,0,0,0,0,0,1.3326,1.3335,1.3414,1.3416,1.342,1.3475,1.3458,1.3524,1.3498,1.3469,1.3497,1.3496,1.3544,1.3551,1.3567,1.3624,1.3627,1.3595,1.3598,1.3599,1.36,0,0,0,0,0,0,0,1.3322,1.3332,1.3427,1.3415,1.3418,1.3424,1.3432,1.3471,1.3509,1.3471,1.3473,1.3482,1.3546,1.3563,1.3569,1.3628,1.3595,1.3599,1.3601,1.3602,1.3717,1.3718,0,0,0,0,0,0,1.3313,1.3328,1.3424,1.3429,1.337,1.3426,1.3436,1.3458,1.3509,1.3516,1.3482,1.3483,1.3557,1.3564,1.3572,1.3616,1.3599,1.3603,1.3605,1.3716,1.3717,1.3718,0,0,0,0,0,0,1.331,1.3322,1.3421,1.3379,1.3392,1.3429,1.3454,1.346,1.3477,1.3517,1.3524,1.3493,1.3556,1.3566,1.3607,1.3619,1.3605,1.3608,1.3715,1.3716,1.3717,1.3706,0,0,0,0,0,0,1.3307,1.3321,1.3335,1.3379,1.3394,1.3455,1.3455,1.3462,1.3484,1.3485,1.3529,1.3536,1.3557,1.3601,1.3611,1.3624,1.3611,1.3714,1.3716,1.3717,1.3706,1.3707,1.3708,0,0,0,0,0,1.3302,1.333,1.3336,1.3347,1.3413,1.3456,1.3465,1.3488,1.3485,1.3499,1.3525,1.3534,1.3617,1.3605,1.3616,1.3631,1.3714,1.3715,1.3717,1.3705,1.3707,1.3708,0,0,0,0,0,0,1.3287,1.3336,1.3343,1.3386,1.3417,1.346,1.3479,1.3489,1.3521,1.3521,1.3549,1.3559,1.3597,1.3619,1.3605,1.3668,1.3665,1.3669,1.3653,1.3654,1.3655,1.3649,1.3614,0,0,0,0,0,1.3289,1.332,1.3361,1.3394,1.3409,1.3441,1.3461,1.3476,1.3509,1.3522,1.3551,1.3582,1.3615,1.3636,1.3669,1.3709,1.3718,1.3725,1.3726,1.3726,1.3729,1.375,1.3753,1.3723,1.3723,1.3723,0,0,1.3293,1.3323,1.3341,1.3392,1.3418,1.3448,1.3452,1.3485,1.3508,1.3527,1.3567,1.3589,1.3626,1.3666,1.3685,1.3685,1.374,1.3729,1.3729,1.3731,1.3752,1.3755,1.3758,1.3724,1.3724,1.3724,0,0,1.3315,1.3342,1.3372,1.3397,1.3435,1.3456,1.3463,1.3504,1.3519,1.3559,1.3574,1.3601,1.3658,1.3683,1.3703,1.3733,1.3742,1.3743,1.3748,1.3768,1.3771,1.3773,1.3782,1.3785,1.3745,1.3745,1.3745,0,1.3315,1.3362,1.3386,1.3418,1.3439,1.3457,1.3487,1.3511,1.3557,1.3571,1.357,1.364,1.3666,1.3712,1.3719,1.3735,1.3743,1.3738,1.3768,1.3771,1.3773,1.3782,1.3786,1.3745,1.3745,1.3745,1.3745,0,1.336,1.3392,1.3412,1.3455,1.3479,1.351,1.3538,1.3559,1.3571,1.3592,1.3632,1.3664,1.3702,1.3714,1.3727,1.3761,1.3759,1.3763,1.3761,1.3775,1.3784,1.3788,1.3745,1.3745,1.3745,1.3745,0,0,1.3376,1.3431,1.3438,1.3457,1.3499,1.3524,1.3555,1.3592,1.3609,1.364,1.3666,1.3712,1.3715,1.3738,1.3754,1.3772,1.3792,1.3774,1.3775,1.3775,1.3829,1.3825,1.3829,1.3798,1.3799,1.38,1.3825,0,1.3402,1.3458,1.348,1.3525,1.3554,1.3571,1.3597,1.3626,1.3646,1.3673,1.3695,1.3727,1.3729,1.3743,1.3761,1.3785,1.3803,1.3784,1.3822,1.3823,1.3811,1.3834,1.383,1.3853,1.3829,1.383,1.383,0,1.3441,1.3472,1.3519,1.3556,1.3569,1.3593,1.3627,1.3654,1.3686,1.3699,1.3723,1.3738,1.377,1.3766,1.381,1.3796,1.3813,1.3827,1.3829,1.3833,1.3827,1.3837,1.3861,1.3864,1.3836,1.3836,1.3835,0,1.3446,1.3499,1.3534,1.355,1.3595,1.3611,1.363,1.3662,1.3682,1.3712,1.3725,1.3759,1.3777,1.3803,1.3825,1.382,1.3867,1.3865,1.3878,1.3877,1.3887,1.3886,1.3912,1.3899,1.3899,1.3899,1.3899,0,1.3473,1.3501,1.3536,1.3558,1.3589,1.3614,1.3644,1.3665,1.3692,1.3717,1.3735,1.3758,1.3787,1.3814,1.3832,1.3865,1.3874,1.3884,1.3889,1.3882,1.3881,1.3893,1.3892,1.39,1.3899,1.3899,1.3899,0,1.3483,1.3508,1.3547,1.3586,1.3596,1.3617,1.365,1.3671,1.3691,1.3723,1.3732,1.3763,1.3796,1.3821,1.3864,1.3876,1.391,1.3915,1.3899,1.3901,1.3912,1.391,1.3947,1.3952,1.3936,1.3936,1.3936,0,1.3498,1.352,1.3561,1.3578,1.3597,1.3626,1.3646,1.3671,1.3691,1.3728,1.3745,1.3778,1.3806,1.3856,1.3883,1.3915,1.3921,1.3931,1.3926,1.3918,1.392,1.3918,1.3919,1.3932,1.3932,1.3932,1.3932,0,1.3522,1.3533,1.3561,1.3593,1.3617,1.3644,1.3671,1.3684,1.3714,1.3736,1.3768,1.379,1.3832,1.3865,1.3899,1.3919,1.393,1.3933,1.3938,1.3931,1.392,1.3925,1.3899,1.3933,1.3932,1.3932,1.3932,1.3932,1.3534,1.3554,1.3585,1.3615,1.3638,1.3663,1.3684,1.3706,1.3734,1.377,1.3782,1.3816,1.3846,1.3894,1.3913,1.3939,1.394,1.3947,1.3949,1.395,1.3948,1.3917,1.3946,1.3946,1.3946,1.3946,1.3946,0,1.3557,1.3578,1.3606,1.3642,1.3666,1.3674,1.3704,1.3724,1.3753,1.378,1.3807,1.3843,1.3875,1.3903,1.3936,1.3951,1.3957,1.3959,1.3957,1.3961,1.3947,1.3939,1.3953,1.3953,1.3953,1.3953,1.3953,1.3953,1.3572,1.3605,1.3619,1.3663,1.3683,1.3716,1.3732,1.3754,1.3776,1.3816,1.3842,1.386,1.3888,1.3922,1.3951,1.3958,1.3969,1.3969,1.3978,1.3964,1.3963,1.3962,1.3954,1.3972,1.3972,1.3991,1.3991,1.3991]},{"header":{"parameterUnit":"m.s-1","parameterCategory":1,"la1":30.2991,"la2":30.254,"lo1":-89.0895,"lo2":-89.0444,"dy":0.0017,"dx":0.0017,"nx":28,"ny":28,"refTime":"2025-08-16T21:00:00:Z","depth":0,"parameterNumber":3,"parameterNumberName":"V-component_of_WINDS"},"data":[0,0,0,0,0,0,0,0,0,0,0,0,0,0,0,0,0,0,0,0,0,0,0,0,0,0,0,0,0,0,0,0,0,0,0,0,0,0,0,0,0,0,0,0,0,0,0,0,0,0,0,0,0,0,0,0,0,0,3.4424,3.4424,0,3.4424,3.4424,3.4424,3.4402,3.4402,3.4401,3.4401,3.44,3.44,3.4401,0,0,0,0,0,0,0,0,0,0,0,0,0,3.4406,3.4406,3.4424,3.4424,3.4424,3.4424,3.4424,3.4424,3.4403,3.4402,3.4401,3.4401,3.44,3.44,3.4401,0,0,0,0,0,0,0,0,0,0,0,0,0,3.4411,3.4407,3.4424,3.4414,3.4413,3.4424,3.4424,3.4424,3.4403,3.4402,3.4401,3.44,3.4399,3.44,3.4401,3.4422,0,0,3.4403,3.4403,0,0,0,0,0,0,0,0,3.441,3.4411,3.4415,3.4414,3.4413,3.4412,3.4417,3.4423,3.4403,3.4406,3.4401,3.44,3.4405,3.4405,3.4407,3.4422,3.4422,3.4403,3.4404,3.4404,3.4404,0,0,0,0,0,0,0,3.441,3.4411,3.4424,3.4415,3.4414,3.4409,3.4408,3.4418,3.441,3.4406,3.4405,3.4405,3.4404,3.4406,3.4406,3.4422,3.4403,3.4404,3.4404,3.4404,3.4453,3.4454,0,0,0,0,0,0,3.4411,3.4411,3.4424,3.4424,3.441,3.441,3.4409,3.4414,3.441,3.4409,3.4406,3.4404,3.4405,3.4406,3.4406,3.4429,3.4404,3.4405,3.4405,3.4452,3.4453,3.4454,0,0,0,0,0,0,3.4411,3.4413,3.4424,3.4417,3.4418,3.4411,3.4416,3.4414,3.4416,3.441,3.4408,3.4409,3.4404,3.4405,3.4418,3.4429,3.4405,3.4406,3.4451,3.4453,3.4454,3.4476,0,0,0,0,0,0,3.4411,3.4413,3.4421,3.4418,3.4419,3.4436,3.4416,3.4415,3.4417,3.4415,3.4412,3.4411,3.4404,3.4417,3.4419,3.4429,3.4406,3.445,3.4452,3.4453,3.4475,3.4478,3.4481,0,0,0,0,0,3.441,3.4427,3.4421,3.4423,3.4429,3.4437,3.4437,3.4429,3.4418,3.4426,3.4422,3.4411,3.4428,3.4418,3.442,3.4431,3.4449,3.4451,3.4453,3.4473,3.4478,3.4481,0,0,0,0,0,0,3.4432,3.4427,3.442,3.4437,3.4437,3.4433,3.4443,3.4434,3.4437,3.4435,3.4424,3.4424,3.4438,3.4436,3.4426,3.4451,3.4437,3.4439,3.4451,3.4455,3.4459,3.4458,3.4407,0,0,0,0,0,3.4439,3.4446,3.4441,3.4456,3.4457,3.445,3.4453,3.4447,3.4447,3.4447,3.4443,3.4444,3.4449,3.4452,3.4457,3.4475,3.4473,3.4484,3.4487,3.449,3.4491,3.4499,3.4503,3.4461,3.4461,3.4461,0,0,3.4453,3.4451,3.4456,3.4461,3.446,3.4467,3.445,3.4459,3.4464,3.4448,3.4459,3.4457,3.4457,3.4472,3.4478,3.4471,3.4503,3.4492,3.4495,3.4495,3.4502,3.4506,3.4509,3.4462,3.4462,3.4461,0,0,3.4481,3.4482,3.4493,3.4494,3.4493,3.4488,3.4492,3.4489,3.4486,3.4498,3.4486,3.4492,3.4501,3.4501,3.4502,3.4531,3.4521,3.4533,3.455,3.4558,3.4561,3.4564,3.4573,3.4576,3.4535,3.4535,3.4535,0,3.4499,3.4509,3.4501,3.451,3.4512,3.4498,3.451,3.451,3.4512,3.4513,3.4505,3.4516,3.4515,3.4529,3.4536,3.4538,3.454,3.4532,3.4562,3.4565,3.4567,3.4575,3.4579,3.4536,3.4536,3.4536,3.4536,0,3.4529,3.4537,3.4547,3.4548,3.4551,3.4562,3.4554,3.4559,3.4552,3.4548,3.4559,3.4558,3.4561,3.4565,3.4558,3.4578,3.4573,3.4564,3.4549,3.4573,3.458,3.4583,3.4538,3.4538,3.4538,3.4537,0,0,3.457,3.4567,3.457,3.457,3.4569,3.4575,3.4585,3.4588,3.4591,3.4593,3.46,3.4608,3.46,3.4601,3.4595,3.4602,3.4623,3.4592,3.4592,3.4596,3.4642,3.4648,3.4652,3.4617,3.4618,3.4618,3.4642,0,3.4596,3.4612,3.4605,3.4621,3.4627,3.4615,3.4623,3.4623,3.462,3.4625,3.4621,3.4627,3.4616,3.4616,3.4623,3.4619,3.4632,3.4618,3.4622,3.4623,3.4621,3.4656,3.4661,3.4683,3.4645,3.4645,3.4646,0,3.4628,3.463,3.4648,3.4645,3.4647,3.4655,3.4657,3.4662,3.4661,3.4659,3.466,3.4652,3.4661,3.4648,3.4659,3.465,3.4652,3.465,3.4651,3.4649,3.4634,3.4653,3.469,3.4693,3.465,3.465,3.465,0,3.4653,3.4661,3.4672,3.4673,3.4671,3.4676,3.4675,3.4674,3.4676,3.4679,3.468,3.4683,3.4685,3.4687,3.468,3.4672,3.4692,3.4679,3.4689,3.4689,3.4692,3.4691,3.4728,3.4697,3.4697,3.4697,3.4697,0,3.4681,3.4692,3.4683,3.469,3.4701,3.4693,3.4704,3.4702,3.4702,3.4707,3.4698,3.4703,3.4694,3.4699,3.4694,3.4703,3.4704,3.4701,3.4699,3.4701,3.4701,3.47,3.4698,3.4698,3.4697,3.4697,3.4697,0,3.4711,3.4706,3.4716,3.4713,3.4713,3.4721,3.4718,3.4724,3.472,3.4727,3.4729,3.4723,3.4728,3.4722,3.4726,3.4723,3.4735,3.4732,3.4735,3.4733,3.4743,3.4741,3.4779,3.4782,3.475,3.4751,3.4751,0,3.4728,3.4735,3.4733,3.4736,3.4736,3.4741,3.4744,3.4737,3.4739,3.474,3.4745,3.4749,3.4752,3.476,3.4756,3.4759,3.4754,3.4768,3.4755,3.4756,3.4752,3.4751,3.4751,3.4769,3.477,3.477,3.477,0,3.4758,3.4755,3.4759,3.4762,3.4765,3.4767,3.4768,3.4771,3.4764,3.4767,3.4772,3.4774,3.4779,3.4782,3.4784,3.4783,3.4775,3.4775,3.4777,3.4777,3.4778,3.4776,3.4739,3.4773,3.4773,3.4773,3.4773,3.4773,3.4781,3.4786,3.4785,3.479,3.479,3.4791,3.4796,3.4794,3.4797,3.48,3.4796,3.4802,3.4801,3.4803,3.4803,3.4807,3.4801,3.4805,3.4806,3.4806,3.4807,3.4779,3.4808,3.4808,3.4808,3.4808,3.4808,0,3.4809,3.4808,3.4812,3.4814,3.4817,3.4811,3.4812,3.4814,3.4819,3.482,3.4823,3.4828,3.4832,3.4828,3.4831,3.4835,3.4831,3.4836,3.4834,3.4834,3.4813,3.4809,3.4839,3.4839,3.4839,3.4839,3.4839,3.4839,3.4824,3.4832,3.483,3.4839,3.4838,3.4843,3.4844,3.4845,3.4845,3.4851,3.4854,3.4852,3.4851,3.4854,3.4857,3.4856,3.4856,3.4862,3.4859,3.4839,3.4836,3.4833,3.483,3.4862,3.4862,3.488,3.488,3.488]}]]